Regional Weather Roundup
Issued by NWS

Home | Current Version | Previous Version | Text Only | Print | Product List | Glossary On
Versions: 1 2 3 4 5 6 7 8 9 10 11 12 13 14 15 16 17 18 19 20 21 22 23 24 25 26 27 28 29 30 31 32 33 34 35 36 37 38 39 40 41 42 43 44 45 46 47 48 49 50
000
ASUS44 KJAN 242020
RWRMS

MISSISSIPPI HOURLY WEATHER ROUNDUP
NATIONAL WEATHER SERVICE JACKSON MS
300 PM CDT SUN JUL 24 2016

NOTE: "FAIR: INDICATES FEW OR NO CLOUDS BELOW 12,000 FEET WITH NO
SIGNIFICANT WEATHER AND/OR OBSTRUCTIONS TO VISIBILITY.

MSZ001>002-007>008-010>013-018>021-025>028-034>036-242100-
NORTHWEST MISSISSIPPI

CITY           SKY/WX    TMP DP  RH WIND       PRES   REMARKS
CLEVELAND      CLOUDY    90  83  78 W3        29.95F HX 113
GREENWOOD      PTSUNNY   92  74  55 SE10      29.94F HX 101
GREENVILLE     CLOUDY    91  75  59 NE3       29.94F HX 101
OXFORD         FAIR      90  72  55 SW5       29.98F HX  96
WINONA         MOCLDY    80  77  89 CALM      29.95F
$$

MSZ003>006-009-014>017-022>024-029>033-037>039-242100-
NORTHEAST MISSISSIPPI

CITY           SKY/WX    TMP DP  RH WIND       PRES   REMARKS
ABERDEEN       FAIR      86  68  54 CALM      29.97F
COLUMBUS AFB   PTSUNNY   94  81  65 E5        29.94F HX 115
GOLDN TRIANGLE MOSUNNY   95  72  46 S5        29.95F HX 103
TUPELO         MOSUNNY   92  71  50 S9        29.96F HX  98
$$

MSZ040-058-242100-
CENTRAL MISSISSIPPI

CITY           SKY/WX    TMP DP  RH WIND       PRES   REMARKS
JACKSON INTL   PTSUNNY   90  74  59 NW8       29.95F HX  99
JACKSON HAWKNS MOSUNNY   84  73  69 NE6       29.96F HX  90
MADISON        FAIR      81  72  74 NW5       29.96S
MERIDIAN KEY   SUNNY     96  71  44 CALM      29.95F HX 103
MERIDIAN NAS   CLOUDY    98  67  36 SE9       29.96F HX 102
VICKSBURG VKS  CLEAR     86  77  74 VRB3      29.95F HX  97
$$

MSZ059>079-242100-
SOUTH MISSISSIPPI

CITY           SKY/WX    TMP DP  RH WIND       PRES   REMARKS
BROOKHAVEN     FAIR     N/A N/A N/A N6        29.96F
COLUMBIA       FAIR      93  73  52 E9        29.97F HX 102
HATTIESBURG    SUNNY     93  73  52 SE7       29.95F HX 102
MCCOMB         MOSUNNY   92  71  50 N7        29.95F HX  98
NATCHEZ        CLOUDY    84  75  74 N3        29.95F HX  92
PINE BELT      SUNNY     91  73  55 NE6       29.97F HX 100
$$

MSZ080>082-242100-
COASTAL MISSISSIPPI

CITY           SKY/WX    TMP DP  RH WIND       PRES   REMARKS
BAY ST LOUIS   MOSUNNY   88  73  62 SE5       29.95F HX  96
BILOXI         CLOUDY    85  76  73 VRB2      29.95F HX  95
PASCAGOULA     MOSUNNY   87  80  79 VRB7      29.96F HX 103
GULFPORT       CLOUDY    83  75  77 NE5       29.95F HX  90
$$

LAZ007>009-015>016-023>026-242100-
NORTHEAST LOUISIANA

CITY           SKY/WX    TMP DP  RH WIND       PRES   REMARKS
BASTROP        TSTM      75  73  93 SW9G17    30.01R
TALLULAH/VBURG CLOUDY    85  77  77 CALM      29.95F HX  95
VIDALIA        FAIR      86  76  72 W7        29.98F HX  96
$$



USA.gov is the U.S. government's official web portal to all federal, state and local government web resources and services.